カタログに戻る

STARLINK-3245

運用中通信VLEO
NORAD 50170·PAYLOAD·🇺🇸 United States

打ち上げ Dec 18, 2021 から Vandenberg Space Force Base

Loading…

次のパス (今後24時間)

TLE

最新Source: CelesTrak SupGP

元期: Sep 14, 2026, 20:10 UTC

1 50170C 21125Q   26257.84076389 -.00021725  00000+0 -69867-3 0  2575
2 50170  53.1566 108.1496 0001229  89.1084  35.0404 15.31709686    17

AllMySatでSTARLINK-3245をリアルタイム追跡

Download on the App Store